﻿測定場所 (Monitoring sites),日付 (Measurement date),時間 (Measurement time),線量率 最大値 (max) μGy/h,線量率 最小値 (min) μGy/h,線量率 平均値 (average) μGy/h,
新宿 (Shinjuku),2022-09-18,23:01～24:00,0.0374,0.0333,0.0353,
新宿 (Shinjuku),2022-09-18,22:01～23:00,0.0382,0.0335,0.0352,
新宿 (Shinjuku),2022-09-18,21:01～22:00,0.0375,0.0332,0.0355,
新宿 (Shinjuku),2022-09-18,20:01～21:00,0.0371,0.0331,0.0352,
新宿 (Shinjuku),2022-09-18,19:01～20:00,0.0387,0.0322,0.0357,
新宿 (Shinjuku),2022-09-18,18:01～19:00,0.0390,0.0340,0.0365,
新宿 (Shinjuku),2022-09-18,17:01～18:00,0.0399,0.0331,0.0363,
新宿 (Shinjuku),2022-09-18,16:01～17:00,0.0388,0.0343,0.0361,
新宿 (Shinjuku),2022-09-18,15:01～16:00,0.0410,0.0349,0.0370,
新宿 (Shinjuku),2022-09-18,14:01～15:00,0.0401,0.0346,0.0370,
新宿 (Shinjuku),2022-09-18,13:01～14:00,0.0422,0.0364,0.0391,
新宿 (Shinjuku),2022-09-18,12:01～13:00,0.0425,0.0351,0.0379,
新宿 (Shinjuku),2022-09-18,11:01～12:00,0.0446,0.0352,0.0392,
新宿 (Shinjuku),2022-09-18,10:01～11:00,0.0428,0.0358,0.0393,
新宿 (Shinjuku),2022-09-18,09:01～10:00,0.0411,0.0346,0.0372,
新宿 (Shinjuku),2022-09-18,08:01～09:00,0.0386,0.0335,0.0361,
新宿 (Shinjuku),2022-09-18,07:01～08:00,0.0393,0.0336,0.0361,
新宿 (Shinjuku),2022-09-18,06:01～07:00,0.0399,0.0342,0.0364,
新宿 (Shinjuku),2022-09-18,05:01～06:00,0.0411,0.0346,0.0374,
新宿 (Shinjuku),2022-09-18,04:01～05:00,0.0416,0.0351,0.0374,
新宿 (Shinjuku),2022-09-18,03:01～04:00,0.0386,0.0347,0.0364,
新宿 (Shinjuku),2022-09-18,02:01～03:00,0.0385,0.0340,0.0361,
新宿 (Shinjuku),2022-09-18,01:01～02:00,0.0407,0.0340,0.0363,
新宿 (Shinjuku),2022-09-18,00:01～01:00,0.0381,0.0341,0.0362,
新宿 (Shinjuku),2022-09-17,23:01～24:00,0.0401,0.0346,0.0360,
新宿 (Shinjuku),2022-09-17,22:01～23:00,0.0384,0.0346,0.0360,
新宿 (Shinjuku),2022-09-17,21:01～22:00,0.0398,0.0339,0.0361,
新宿 (Shinjuku),2022-09-17,20:01～21:00,0.0390,0.0337,0.0359,
新宿 (Shinjuku),2022-09-17,19:01～20:00,0.0389,0.0335,0.0360,
新宿 (Shinjuku),2022-09-17,18:01～19:00,0.0379,0.0340,0.0357,
新宿 (Shinjuku),2022-09-17,17:01～18:00,0.0385,0.0337,0.0361,
新宿 (Shinjuku),2022-09-17,16:01～17:00,0.0385,0.0336,0.0360,
新宿 (Shinjuku),2022-09-17,15:01～16:00,0.0382,0.0339,0.0359,
新宿 (Shinjuku),2022-09-17,14:01～15:00,0.0384,0.0343,0.0361,
新宿 (Shinjuku),2022-09-17,13:01～14:00,0.0384,0.0333,0.0360,
新宿 (Shinjuku),2022-09-17,12:01～13:00,0.0389,0.0337,0.0359,
新宿 (Shinjuku),2022-09-17,11:01～12:00,0.0393,0.0343,0.0362,
新宿 (Shinjuku),2022-09-17,10:01～11:00,0.0383,0.0339,0.0362,
新宿 (Shinjuku),2022-09-17,09:01～10:00,0.0389,0.0338,0.0362,
新宿 (Shinjuku),2022-09-17,08:01～09:00,0.0398,0.0337,0.0365,
新宿 (Shinjuku),2022-09-17,07:01～08:00,0.0411,0.0349,0.0372,
新宿 (Shinjuku),2022-09-17,06:01～07:00,0.0413,0.0348,0.0369,
新宿 (Shinjuku),2022-09-17,05:01～06:00,0.0399,0.0348,0.0370,
新宿 (Shinjuku),2022-09-17,04:01～05:00,0.0406,0.0349,0.0368,
新宿 (Shinjuku),2022-09-17,03:01～04:00,0.0407,0.0341,0.0367,
新宿 (Shinjuku),2022-09-17,02:01～03:00,0.0384,0.0350,0.0365,
新宿 (Shinjuku),2022-09-17,01:01～02:00,0.0387,0.0338,0.0361,
新宿 (Shinjuku),2022-09-17,00:01～01:00,0.0387,0.0342,0.0360,
新宿 (Shinjuku),2022-09-16,23:01～24:00,0.0380,0.0339,0.0361,
新宿 (Shinjuku),2022-09-16,22:01～23:00,0.0379,0.0338,0.0359,
新宿 (Shinjuku),2022-09-16,21:01～22:00,0.0389,0.0337,0.0362,
新宿 (Shinjuku),2022-09-16,20:01～21:00,0.0379,0.0342,0.0359,
新宿 (Shinjuku),2022-09-16,19:01～20:00,0.0386,0.0338,0.0359,
新宿 (Shinjuku),2022-09-16,18:01～19:00,0.0404,0.0340,0.0364,
新宿 (Shinjuku),2022-09-16,17:01～18:00,0.0389,0.0340,0.0361,
新宿 (Shinjuku),2022-09-16,16:01～17:00,0.0395,0.0335,0.0364,
新宿 (Shinjuku),2022-09-16,15:01～16:00,0.0375,0.0344,0.0360,
新宿 (Shinjuku),2022-09-16,14:01～15:00,0.0379,0.0333,0.0359,
新宿 (Shinjuku),2022-09-16,13:01～14:00,0.0374,0.0330,0.0354,
新宿 (Shinjuku),2022-09-16,12:01～13:00,0.0387,0.0342,0.0359,
新宿 (Shinjuku),2022-09-16,11:01～12:00,0.0377,0.0340,0.0359,
新宿 (Shinjuku),2022-09-16,10:01～11:00,0.0392,0.0341,0.0363,
新宿 (Shinjuku),2022-09-16,09:01～10:00,0.0380,0.0339,0.0361,
新宿 (Shinjuku),2022-09-16,08:01～09:00,0.0389,0.0349,0.0364,
新宿 (Shinjuku),2022-09-16,07:01～08:00,0.0390,0.0341,0.0363,
新宿 (Shinjuku),2022-09-16,06:01～07:00,0.0399,0.0341,0.0364,
新宿 (Shinjuku),2022-09-16,05:01～06:00,0.0398,0.0344,0.0365,
新宿 (Shinjuku),2022-09-16,04:01～05:00,0.0397,0.0344,0.0363,
新宿 (Shinjuku),2022-09-16,03:01～04:00,0.0389,0.0340,0.0362,
新宿 (Shinjuku),2022-09-16,02:01～03:00,0.0404,0.0345,0.0361,
新宿 (Shinjuku),2022-09-16,01:01～02:00,0.0389,0.0338,0.0359,
新宿 (Shinjuku),2022-09-16,00:01～01:00,0.0388,0.0337,0.0362,
新宿 (Shinjuku),2022-09-15,23:01～24:00,0.0389,0.0342,0.0360,
新宿 (Shinjuku),2022-09-15,22:01～23:00,0.0398,0.0335,0.0364,
新宿 (Shinjuku),2022-09-15,21:01～22:00,0.0391,0.0346,0.0363,
新宿 (Shinjuku),2022-09-15,20:01～21:00,0.0404,0.0343,0.0365,
新宿 (Shinjuku),2022-09-15,19:01～20:00,0.0394,0.0339,0.0362,
新宿 (Shinjuku),2022-09-15,18:01～19:00,0.0388,0.0333,0.0359,
新宿 (Shinjuku),2022-09-15,17:01～18:00,0.0407,0.0337,0.0362,
新宿 (Shinjuku),2022-09-15,16:01～17:00,0.0379,0.0324,0.0353,
新宿 (Shinjuku),2022-09-15,15:01～16:00,0.0390,0.0337,0.0362,
新宿 (Shinjuku),2022-09-15,14:01～15:00,0.0401,0.0337,0.0360,
新宿 (Shinjuku),2022-09-15,13:01～14:00,0.0395,0.0331,0.0362,
新宿 (Shinjuku),2022-09-15,12:01～13:00,0.0382,0.0339,0.0360,
新宿 (Shinjuku),2022-09-15,11:01～12:00,0.0384,0.0338,0.0360,
新宿 (Shinjuku),2022-09-15,10:01～11:00,0.0397,0.0347,0.0364,
新宿 (Shinjuku),2022-09-15,09:01～10:00,0.0384,0.0342,0.0360,
新宿 (Shinjuku),2022-09-15,08:01～09:00,0.0393,0.0342,0.0362,
新宿 (Shinjuku),2022-09-15,07:01～08:00,0.0387,0.0337,0.0359,
新宿 (Shinjuku),2022-09-15,06:01～07:00,0.0395,0.0344,0.0364,
新宿 (Shinjuku),2022-09-15,05:01～06:00,0.0408,0.0350,0.0364,
新宿 (Shinjuku),2022-09-15,04:01～05:00,0.0396,0.0337,0.0361,
新宿 (Shinjuku),2022-09-15,03:01～04:00,0.0397,0.0337,0.0361,
新宿 (Shinjuku),2022-09-15,02:01～03:00,0.0396,0.0340,0.0361,
新宿 (Shinjuku),2022-09-15,01:01～02:00,0.0389,0.0342,0.0361,
新宿 (Shinjuku),2022-09-15,00:01～01:00,0.0379,0.0335,0.0361,
新宿 (Shinjuku),2022-09-14,23:01～24:00,0.0387,0.0345,0.0363,
新宿 (Shinjuku),2022-09-14,22:01～23:00,0.0383,0.0328,0.0362,
新宿 (Shinjuku),2022-09-14,21:01～22:00,0.0384,0.0346,0.0365,
新宿 (Shinjuku),2022-09-14,20:01～21:00,0.0394,0.0343,0.0364,
新宿 (Shinjuku),2022-09-14,19:01～20:00,0.0390,0.0347,0.0365,
新宿 (Shinjuku),2022-09-14,18:01～19:00,0.0389,0.0333,0.0365,
新宿 (Shinjuku),2022-09-14,17:01～18:00,0.0427,0.0346,0.0364,
新宿 (Shinjuku),2022-09-14,16:01～17:00,0.0417,0.0341,0.0363,
新宿 (Shinjuku),2022-09-14,15:01～16:00,0.0398,0.0335,0.0359,
新宿 (Shinjuku),2022-09-14,14:01～15:00,0.0387,0.0338,0.0361,
新宿 (Shinjuku),2022-09-14,13:01～14:00,0.0393,0.0344,0.0363,
新宿 (Shinjuku),2022-09-14,12:01～13:00,0.0383,0.0347,0.0364,
新宿 (Shinjuku),2022-09-14,11:01～12:00,0.0381,0.0345,0.0361,
新宿 (Shinjuku),2022-09-14,10:01～11:00,0.0403,0.0338,0.0364,
新宿 (Shinjuku),2022-09-14,09:01～10:00,0.0389,0.0339,0.0360,
新宿 (Shinjuku),2022-09-14,08:01～09:00,0.0388,0.0333,0.0358,
新宿 (Shinjuku),2022-09-14,07:01～08:00,0.0383,0.0330,0.0360,
新宿 (Shinjuku),2022-09-14,06:01～07:00,0.0395,0.0338,0.0362,
新宿 (Shinjuku),2022-09-14,05:01～06:00,0.0384,0.0342,0.0362,
新宿 (Shinjuku),2022-09-14,04:01～05:00,0.0391,0.0338,0.0364,
新宿 (Shinjuku),2022-09-14,03:01～04:00,0.0379,0.0336,0.0358,
新宿 (Shinjuku),2022-09-14,02:01～03:00,0.0378,0.0319,0.0358,
新宿 (Shinjuku),2022-09-14,01:01～02:00,0.0375,0.0340,0.0357,
新宿 (Shinjuku),2022-09-14,00:01～01:00,0.0386,0.0338,0.0357,
新宿 (Shinjuku),2022-09-13,23:01～24:00,0.0386,0.0331,0.0360,
新宿 (Shinjuku),2022-09-13,22:01～23:00,0.0378,0.0337,0.0357,
新宿 (Shinjuku),2022-09-13,21:01～22:00,0.0381,0.0340,0.0357,
新宿 (Shinjuku),2022-09-13,20:01～21:00,0.0379,0.0334,0.0358,
新宿 (Shinjuku),2022-09-13,19:01～20:00,0.0384,0.0341,0.0359,
新宿 (Shinjuku),2022-09-13,18:01～19:00,0.0381,0.0337,0.0358,
新宿 (Shinjuku),2022-09-13,17:01～18:00,0.0376,0.0338,0.0357,
新宿 (Shinjuku),2022-09-13,16:01～17:00,0.0396,0.0330,0.0357,
新宿 (Shinjuku),2022-09-13,15:01～16:00,0.0398,0.0330,0.0360,
新宿 (Shinjuku),2022-09-13,14:01～15:00,0.0382,0.0328,0.0358,
新宿 (Shinjuku),2022-09-13,13:01～14:00,0.0378,0.0329,0.0357,
新宿 (Shinjuku),2022-09-13,12:01～13:00,0.0397,0.0339,0.0358,
新宿 (Shinjuku),2022-09-13,11:01～12:00,0.0372,0.0338,0.0357,
新宿 (Shinjuku),2022-09-13,10:01～11:00,0.0375,0.0330,0.0356,
新宿 (Shinjuku),2022-09-13,09:01～10:00,0.0388,0.0337,0.0361,
新宿 (Shinjuku),2022-09-13,08:01～09:00,0.0383,0.0344,0.0360,
新宿 (Shinjuku),2022-09-13,07:01～08:00,0.0379,0.0337,0.0359,
新宿 (Shinjuku),2022-09-13,06:01～07:00,0.0401,0.0338,0.0362,
新宿 (Shinjuku),2022-09-13,05:01～06:00,0.0395,0.0335,0.0358,
新宿 (Shinjuku),2022-09-13,04:01～05:00,0.0378,0.0336,0.0358,
新宿 (Shinjuku),2022-09-13,03:01～04:00,0.0378,0.0338,0.0358,
新宿 (Shinjuku),2022-09-13,02:01～03:00,0.0374,0.0340,0.0359,
新宿 (Shinjuku),2022-09-13,01:01～02:00,0.0384,0.0342,0.0358,
新宿 (Shinjuku),2022-09-13,00:01～01:00,0.0373,0.0338,0.0356,
新宿 (Shinjuku),2022-09-12,23:01～24:00,0.0380,0.0338,0.0356,
新宿 (Shinjuku),2022-09-12,22:01～23:00,0.0379,0.0340,0.0359,
新宿 (Shinjuku),2022-09-12,21:01～22:00,0.0382,0.0334,0.0360,
新宿 (Shinjuku),2022-09-12,20:01～21:00,0.0381,0.0333,0.0358,
新宿 (Shinjuku),2022-09-12,19:01～20:00,0.0386,0.0334,0.0355,
新宿 (Shinjuku),2022-09-12,18:01～19:00,0.0390,0.0334,0.0358,
新宿 (Shinjuku),2022-09-12,17:01～18:00,0.0383,0.0336,0.0359,
新宿 (Shinjuku),2022-09-12,16:01～17:00,0.0370,0.0339,0.0357,
新宿 (Shinjuku),2022-09-12,15:01～16:00,0.0389,0.0338,0.0356,
新宿 (Shinjuku),2022-09-12,14:01～15:00,0.0379,0.0342,0.0358,
新宿 (Shinjuku),2022-09-12,13:01～14:00,0.0395,0.0335,0.0358,
新宿 (Shinjuku),2022-09-12,12:01～13:00,0.0371,0.0323,0.0356,
新宿 (Shinjuku),2022-09-12,11:01～12:00,0.0381,0.0339,0.0358,
新宿 (Shinjuku),2022-09-12,10:01～11:00,0.0380,0.0338,0.0357,
新宿 (Shinjuku),2022-09-12,09:01～10:00,0.0383,0.0337,0.0357,
新宿 (Shinjuku),2022-09-12,08:01～09:00,0.0375,0.0341,0.0358,
新宿 (Shinjuku),2022-09-12,07:01～08:00,0.0393,0.0340,0.0360,
新宿 (Shinjuku),2022-09-12,06:01～07:00,0.0394,0.0344,0.0363,
新宿 (Shinjuku),2022-09-12,05:01～06:00,0.0384,0.0339,0.0361,
新宿 (Shinjuku),2022-09-12,04:01～05:00,0.0385,0.0327,0.0359,
新宿 (Shinjuku),2022-09-12,03:01～04:00,0.0376,0.0333,0.0359,
新宿 (Shinjuku),2022-09-12,02:01～03:00,0.0379,0.0336,0.0357,
新宿 (Shinjuku),2022-09-12,01:01～02:00,0.0370,0.0338,0.0357,
新宿 (Shinjuku),2022-09-12,00:01～01:00,0.0391,0.0333,0.0359,
